• In Deutschland
  • Länderverzeichnis
  • Für 7 Tage
  • Wassertemperatur
  • Satellitenkarten
  • Wetterkarte
  • Widgets
  • user-avatar
    Anmelden

    Stündliche Wetter Sidi Bu-l-Abbas

    Heute, 27 Juni, Dienstag

    Zeit Temperatur Niederschläge Wind Luftdruck Luftfeuchtigkeit
    00:00 +30°C° 0 mm 1 m/S 719 mmHg 46%
    01:00 +30°C° 0 mm 2 m/S 719 mmHg 45%
    02:00 +29°C° 0 mm 2 m/S 718 mmHg 44%
    03:00 +29°C° 0 mm 2 m/S 718 mmHg 42%
    04:00 +29°C° 0 mm 2 m/S 718 mmHg 42%
    05:00 +29°C° 0 mm 2 m/S 718 mmHg 41%
    06:00 +29°C° 0 mm 2 m/S 718 mmHg 40%
    07:00 +31°C° 0 mm 3 m/S 718 mmHg 35%
    08:00 +35°C° 0 mm 3 m/S 719 mmHg 29%
    09:00 +37°C° 0 mm 4 m/S 719 mmHg 24%
    10:00 +37°C° 0 mm 5 m/S 719 mmHg 23%
    11:00 +39°C° 0 mm 6 m/S 719 mmHg 23%
    12:00 +39°C° 0 mm 6 m/S 719 mmHg 22%
    13:00 +39°C° 0 mm 6 m/S 718 mmHg 23%
    14:00 +38°C° 0 mm 6 m/S 718 mmHg 24%
    15:00 +36°C° 0 mm 6 m/S 718 mmHg 25%
    16:00 +35°C° 0 mm 6 m/S 717 mmHg 26%
    17:00 +34°C° 0 mm 5 m/S 717 mmHg 28%
    18:00 +33°C° 0 mm 5 m/S 717 mmHg 29%
    19:00 +30°C° 0,1 mm 4 m/S 718 mmHg 31%
    20:00 +29°C° 0,1 mm 3 m/S 718 mmHg 34%
    21:00 +28°C° 0,1 mm 2 m/S 719 mmHg 36%
    22:00 +27°C° 0,3 mm 3 m/S 719 mmHg 39%
    23:00 +26°C° 0,3 mm 3 m/S 719 mmHg 42%

    Morgen, 28 Juni, Mittwoch

    Zeit Temperatur Niederschläge Wind Luftdruck Luftfeuchtigkeit
    00:00 +26°C° 0,3 mm 3 m/S 719 mmHg 45%
    01:00 +25°C° 0,1 mm 3 m/S 719 mmHg 48%
    02:00 +24°C° 0,1 mm 3 m/S 719 mmHg 51%
    03:00 +24°C° 0,1 mm 3 m/S 719 mmHg 54%
    04:00 +24°C° 0 mm 3 m/S 719 mmHg 52%
    05:00 +24°C° 0 mm 3 m/S 719 mmHg 51%
    06:00 +24°C° 0 mm 3 m/S 719 mmHg 50%
    07:00 +26°C° 0 mm 4 m/S 720 mmHg 46%
    08:00 +27°C° 0 mm 5 m/S 720 mmHg 41%
    09:00 +29°C° 0 mm 6 m/S 720 mmHg 37%
    10:00 +30°C° 0 mm 6 m/S 720 mmHg 34%
    11:00 +32°C° 0 mm 6 m/S 720 mmHg 31%
    12:00 +34°C° 0 mm 7 m/S 720 mmHg 28%
    13:00 +34°C° 0 mm 7 m/S 719 mmHg 28%
    14:00 +34°C° 0 mm 7 m/S 719 mmHg 28%
    15:00 +34°C° 0 mm 7 m/S 719 mmHg 28%
    16:00 +32°C° 0 mm 7 m/S 718 mmHg 31%
    17:00 +30°C° 0 mm 6 m/S 718 mmHg 34%
    18:00 +29°C° 0 mm 6 m/S 718 mmHg 37%
    19:00 +27°C° 0 mm 5 m/S 718 mmHg 42%
    20:00 +26°C° 0 mm 4 m/S 719 mmHg 48%
    21:00 +24°C° 0 mm 3 m/S 719 mmHg 54%
    22:00 +24°C° 0 mm 3 m/S 719 mmHg 56%
    23:00 +22°C° 0 mm 3 m/S 719 mmHg 57%

    übermorgen, 29 Juni, Donnerstag

    Zeit Temperatur Niederschläge Wind Luftdruck Luftfeuchtigkeit
    00:00 +22°C° 0 mm 3 m/S 719 mmHg 59%
    01:00 +21°C° 0 mm 3 m/S 719 mmHg 61%
    02:00 +21°C° 0 mm 3 m/S 719 mmHg 63%
    03:00 +20°C° 0 mm 3 m/S 718 mmHg 64%
    04:00 +21°C° 0 mm 3 m/S 718 mmHg 64%
    05:00 +21°C° 0 mm 3 m/S 719 mmHg 63%
    06:00 +22°C° 0 mm 3 m/S 719 mmHg 62%
    07:00 +24°C° 0 mm 3 m/S 719 mmHg 55%
    08:00 +26°C° 0 mm 3 m/S 719 mmHg 49%
    09:00 +28°C° 0 mm 4 m/S 719 mmHg 42%
    10:00 +29°C° 0 mm 4 m/S 719 mmHg 39%
    11:00 +32°C° 0 mm 4 m/S 719 mmHg 36%
    12:00 +33°C° 0 mm 5 m/S 719 mmHg 32%
    13:00 +33°C° 0 mm 5 m/S 718 mmHg 33%
    14:00 +33°C° 0 mm 5 m/S 718 mmHg 34%
    15:00 +33°C° 0 mm 6 m/S 717 mmHg 35%
    16:00 +32°C° 0 mm 5 m/S 717 mmHg 38%
    17:00 +30°C° 0 mm 5 m/S 717 mmHg 40%
    18:00 +28°C° 0 mm 5 m/S 716 mmHg 43%
    19:00 +27°C° 0 mm 4 m/S 717 mmHg 46%
    20:00 +25°C° 0 mm 3 m/S 717 mmHg 49%
    21:00 +24°C° 0 mm 3 m/S 717 mmHg 53%
    22:00 +24°C° 0 mm 3 m/S 717 mmHg 52%
    23:00 +22°C° 0 mm 3 m/S 717 mmHg 52%

    30 Juni, Freitag

    Zeit Temperatur Niederschläge Wind Luftdruck Luftfeuchtigkeit
    00:00 +22°C° 0 mm 3 m/S 717 mmHg 52%
    01:00 +21°C° 0 mm 3 m/S 717 mmHg 52%
    02:00 +21°C° 0 mm 3 m/S 717 mmHg 52%
    03:00 +21°C° 0 mm 4 m/S 717 mmHg 52%
    04:00 +21°C° 0 mm 4 m/S 717 mmHg 52%
    05:00 +21°C° 0 mm 4 m/S 717 mmHg 52%
    06:00 +21°C° 0 mm 4 m/S 718 mmHg 52%
    07:00 +22°C° 0 mm 5 m/S 718 mmHg 48%
    08:00 +24°C° 0 mm 6 m/S 719 mmHg 43%
    09:00 +26°C° 0 mm 7 m/S 719 mmHg 39%
    10:00 +27°C° 0 mm 7 m/S 719 mmHg 37%
    11:00 +28°C° 0 mm 7 m/S 719 mmHg 34%
    12:00 +28°C° 0 mm 8 m/S 719 mmHg 32%
    13:00 +28°C° 0 mm 8 m/S 719 mmHg 30%
    14:00 +28°C° 0 mm 7 m/S 719 mmHg 29%
    15:00 +28°C° 0 mm 7 m/S 720 mmHg 27%
    16:00 +27°C° 0 mm 6 m/S 720 mmHg 28%
    17:00 +26°C° 0 mm 6 m/S 720 mmHg 28%
    18:00 +25°C° 0 mm 5 m/S 720 mmHg 28%
    19:00 +23°C° 0 mm 4 m/S 720 mmHg 32%
    20:00 +22°C° 0 mm 3 m/S 720 mmHg 36%
    21:00 +20°C° 0 mm 2 m/S 720 mmHg 40%
    22:00 +19°C° 0 mm 2 m/S 720 mmHg 42%
    23:00 +19°C° 0 mm 2 m/S 720 mmHg 45%

    1 Juli, Samstag

    Zeit Temperatur Niederschläge Wind Luftdruck Luftfeuchtigkeit
    00:00 +18°C° 0 mm 2 m/S 720 mmHg 47%
    01:00 +18°C° 0 mm 2 m/S 720 mmHg 49%
    02:00 +17°C° 0 mm 2 m/S 720 mmHg 52%
    03:00 +17°C° 0 mm 2 m/S 720 mmHg 54%
    04:00 +18°C° 0 mm 2 m/S 720 mmHg 53%
    05:00 +19°C° 0 mm 2 m/S 721 mmHg 52%
    06:00 +20°C° 0 mm 1 m/S 721 mmHg 51%
    07:00 +21°C° 0 mm 2 m/S 721 mmHg 45%
    08:00 +24°C° 0 mm 2 m/S 722 mmHg 40%
    09:00 +26°C° 0 mm 2 m/S 722 mmHg 35%
    10:00 +28°C° 0 mm 3 m/S 722 mmHg 32%
    11:00 +29°C° 0 mm 4 m/S 722 mmHg 29%
    12:00 +30°C° 0 mm 4 m/S 722 mmHg 25%
    13:00 +32°C° 0 mm 5 m/S 722 mmHg 25%
    14:00 +32°C° 0 mm 5 m/S 722 mmHg 24%
    15:00 +32°C° 0 mm 6 m/S 722 mmHg 24%
    16:00 +30°C° 0 mm 6 m/S 722 mmHg 26%
    17:00 +29°C° 0 mm 6 m/S 722 mmHg 28%
    18:00 +28°C° 0 mm 6 m/S 722 mmHg 29%
    19:00 +27°C° 0 mm 5 m/S 722 mmHg 34%
    20:00 +25°C° 0 mm 3 m/S 723 mmHg 39%
    21:00 +23°C° 0 mm 2 m/S 723 mmHg 44%
    22:00 +21°C° 0 mm 2 m/S 723 mmHg 47%
    23:00 +21°C° 0 mm 2 m/S 723 mmHg 49%

    2 Juli, Sonntag

    Zeit Temperatur Niederschläge Wind Luftdruck Luftfeuchtigkeit
    00:00 +20°C° 0 mm 2 m/S 723 mmHg 51%
    01:00 +19°C° 0 mm 2 m/S 723 mmHg 54%
    02:00 +19°C° 0 mm 2 m/S 723 mmHg 56%
    03:00 +18°C° 0 mm 2 m/S 722 mmHg 58%
    04:00 +19°C° 0 mm 2 m/S 723 mmHg 57%
    05:00 +20°C° 0 mm 2 m/S 723 mmHg 56%
    06:00 +20°C° 0 mm 2 m/S 723 mmHg 55%
    07:00 +22°C° 0 mm 3 m/S 723 mmHg 47%
    08:00 +26°C° 0 mm 3 m/S 724 mmHg 38%
    09:00 +28°C° 0 mm 3 m/S 724 mmHg 30%
    10:00 +29°C° 0 mm 4 m/S 724 mmHg 27%
    11:00 +32°C° 0 mm 4 m/S 724 mmHg 24%
    12:00 +33°C° 0 mm 5 m/S 723 mmHg 22%
    13:00 +34°C° 0 mm 5 m/S 723 mmHg 22%
    14:00 +34°C° 0 mm 5 m/S 723 mmHg 23%
    15:00 +34°C° 0 mm 6 m/S 722 mmHg 23%
    16:00 +33°C° 0 mm 6 m/S 722 mmHg 27%
    17:00 +32°C° 0 mm 6 m/S 722 mmHg 32%
    18:00 +29°C° 0 mm 6 m/S 722 mmHg 36%
    19:00 +27°C° 0 mm 5 m/S 722 mmHg 44%
    20:00 +26°C° 0 mm 4 m/S 723 mmHg 53%
    21:00 +24°C° 0 mm 3 m/S 723 mmHg 61%
    22:00 +23°C° 0 mm 2 m/S 723 mmHg 64%
    23:00 +21°C° 0 mm 2 m/S 723 mmHg 68%
    Mehr zeigen